User: anonymous   Login
Location: Parc National du Mont-Orford
(45.3122°N, 72.2403°W)
Time: 22:57:50
(UTC-05:00)
Language:

Envisat - Orbit

View from above orbital plane
View from above orbital plane
View from above satellite
View from above satellite

Ground track
Ground track

The orbit data is extracted from the following two-line orbital elements,

1 27386U 02009A   18054.80048206 -.00000009  00000-0  10792-4 0  9996
2 27386  98.1992  94.1199 0001283  90.3177 269.8147 14.37915925837236
Epoch (UTC): 23 February 2018 19:12:41
Eccentricity: 0.0001283
inclination: 98.1992°
perigee height: 764 km
apogee height: 766 km
right ascension of ascending node: 94.1199°
argument of perigee: 90.3177°
revolutions per day: 14.37915925
mean anomaly at epoch: 269.8147°
orbit number at epoch: 83723

The dashed part of the orbit path shows where the satellite is in the earth's shadow,  

DLR